Voltar ao catálogo

THOR ABLESTAR DEB

AtivoLEO
NORAD 232·DEBRIS·🇺🇸 United States

Lançado Jun 29, 1961 de Cape Canaveral Space Force Station

Loading…

Próximas Passagens (próximas 24 horas)

TLE

AtualizadoSource: Space-Track

Época: Sep 7, 2026, 07:05 UTC

1 00232U 61015BQ  26250.29541234  .00000082  00000-0  10639-3 0  9997
2 00232  66.8227   9.8207 0052169  41.8884 318.6173 14.00829465318495

Acompanhe THOR ABLESTAR DEB em tempo real com AllMySat

Download on the App Store